Theta_e
335 336 335 333 336 340 343 345 349 350 357 360 362 363 365 365 366 366 364 365 364 358 360 358 370 367 372 375 375 374 375 371 369
331 334 335 334 336 338 343 344 348 349 357 360 361 361 363 365 365 366 362 365 365 362 368 361 367 370 372 373 375 375 375 369 368
331 334 335 333 335 337 340 341 344 348 356 357 359 359 362 363 366 367 366 369 367 362 364 371 377 372 373 376 379 378 376 369 370
331 333 334 334 335 337 340 341 343 345 350 355 357 357 359 360 363 366 367 364 368 366 366 374 374 378 377 375 376 377 376 374 372
330 335 335 334 335 338 340 342 342 345 348 349 355 356 356 356 360 362 364 364 364 366 363 370 379 373 375 375 375 376 375 370 366
333 336 337 338 335 336 341 343 346 347 349 347 350 355 352 354 356 359 359 362 362 364 365 365 364 372 370 370 371 372 374 372 372
331 334 338 336 338 341 348 343 349 357 350 350 348 351 351 348 353 355 357 359 362 362 366 366 364 366 369 370 371 370 369 369 370
329 331 332 334 337 345 352 359 356 354 350 351 352 354 349 349 350 351 354 357 361 361 365 367 366 367 368 370 369 368 368 369 369
328 330 332 334 338 341 347 353 365 362 362 360 355 358 361 354 358 356 361 360 361 369 366 366 368 367 368 370 367 355 350 364 364
329 331 332 334 336 338 342 347 357 358 376 376 377 377 374 382 372 361 364 371 368 366 369 369 368 368 370 368 369 342 347 354 364
331 332 333 334 334 337 342 342 345 358 359 378 373 371 373 372 378 378 370 373 374 367 368 368 368 369 370 370 370 342 344 351 366
332 331 332 331 333 336 348 348 358 362 363 364 368 368 367 372 368 370 376 371 374 370 368 367 369 370 370 372 350 335 339 352 365
329 330 331 331 332 333 335 343 344 352 356 358 365 366 366 369 374 369 372 370 371 373 370 367 369 370 374 345 340 328 333 345 350
329 329 330 334 334 334 337 341 339 345 355 355 364 369 366 371 369 371 371 375 373 374 370 367 369 369 345 342 337 328 325 326 345
327 327 328 330 334 335 337 344 346 350 359 364 368 367 366 376 373 373 370 373 372 371 370 368 366 349 337 334 332 323 324 325 325
325 326 328 332 335 336 345 348 347 356 359 362 364 367 363 370 374 374 371 369 366 368 368 361 346 344 335 331 329 327 324 322 324
324 326 329 331 337 340 341 348 349 354 356 358 359 366 368 370 365 367 362 363 359 360 355 349 345 341 334 332 330 328 330 328 326
324 329 331 337 338 339 342 347 351 354 356 356 353 360 354 337 332 320 310 306 307 316 311 323 344 339 335 333 330 320 313 314 316
330 332 336 340 340 341 341 344 347 350 353 355 348 335 335 330 325 320 314 313 310 306 307 307 308 311 317 317 315 308 303 302 304
329 334 339 336 335 333 333 334 337 346 351 347 338 335 333 327 324 324 320 320 315 308 306 305 302 303 304 304 302 301 301 302 305
Wind_Speed
20 21 20 22 19 17 18 17 20 18 22 20 19 17 17 14 12 7 8 7 5 6 5 7 8 10 7 6 6 5 5 3 5
20 19 20 20 21 18 18 18 19 18 20 20 19 19 15 14 13 12 9 9 8 6 6 5 12 11 8 8 8 8 6 4 5
17 17 17 18 19 19 17 19 19 19 18 20 18 17 16 14 14 14 12 9 8 9 7 7 5 11 10 7 6 6 6 5 6
11 17 16 15 16 18 17 18 17 19 17 19 18 18 17 17 15 15 14 11 10 9 9 7 6 5 6 6 6 6 6 5 5
13 7 14 16 15 16 16 16 16 16 17 16 18 17 14 17 15 15 15 14 12 12 11 7 7 8 7 7 6 6 7 9 10
9 11 13 10 14 16 16 16 14 16 18 19 18 17 17 17 17 17 16 16 15 14 12 11 10 8 8 9 9 8 11 12 11
9 9 11 14 15 13 2 18 15 12 18 17 17 19 18 17 18 19 17 15 17 15 15 14 13 12 11 11 11 14 15 13 8
5 7 10 11 10 8 7 7 7 11 16 16 15 11 18 17 16 16 16 15 12 15 15 15 14 11 13 14 14 13 14 9 8
5 4 7 9 9 9 9 9 2 7 6 9 13 12 9 14 13 13 10 12 15 10 12 15 15 15 14 14 13 14 8 11 8
8 7 6 8 7 8 8 5 3 5 3 3 4 5 6 4 7 13 13 11 13 14 12 14 15 15 14 16 14 12 11 13 8
14 9 6 4 6 6 9 9 8 6 5 2 6 7 8 8 7 8 10 11 12 14 13 14 14 13 14 12 5 10 9 7 6
13 9 6 3 7 10 4 6 4 4 5 6 6 8 11 10 11 12 10 12 12 13 13 12 11 11 13 11 8 9 13 7 4
10 8 7 6 7 9 10 8 7 7 6 7 6 8 9 11 10 11 11 13 13 12 12 13 11 11 9 13 11 9 11 7 7
9 8 7 6 6 7 8 8 12 11 7 8 8 7 7 9 12 12 12 10 11 11 13 13 13 10 7 8 7 7 8 6 4
7 7 9 9 8 7 9 9 11 14 7 10 11 7 6 5 10 9 10 12 12 12 12 12 10 12 10 7 6 6 7 6 8
8 9 10 10 10 10 6 7 9 10 10 12 14 9 6 5 6 7 7 10 11 10 14 9 10 10 9 8 6 4 4 3 2
10 10 11 10 11 11 10 7 9 11 10 11 13 10 5 5 6 5 2 3 3 7 7 9 11 10 10 9 5 4 4 3 3
10 8 10 11 11 11 13 11 9 8 10 9 10 8 3 10 9 13 12 13 9 6 5 1 9 9 11 11 7 1 2 6 6
9 7 9 8 11 12 12 14 12 11 9 9 6 8 6 7 9 8 9 10 13 25 15 25 20 20 10 6 10 10 11 16 16
6 7 10 11 12 10 9 10 11 10 6 5 8 9 8 7 9 8 7 8 9 15 15 28 24 18 17 15 10 14 14 12 4
Wind_Direction
171 175 179 177 185 188 181 186 180 181 172 181 184 197 197 203 214 211 207 217 244 193 246 209 175 176 190 195 176 216 232 224 258
150 169 178 177 174 184 179 181 178 181 168 180 185 191 200 199 197 211 211 213 200 235 233 257 159 170 177 185 206 188 189 220 259
143 168 177 180 173 181 184 183 180 179 168 177 183 195 197 200 196 199 216 204 209 200 228 242 131 172 181 180 192 187 181 242 242
145 159 173 178 175 179 181 182 186 180 177 176 184 197 191 197 199 197 202 217 195 209 207 218 177 188 178 180 198 198 186 221 275
11 26 172 175 177 172 174 181 183 180 177 186 185 191 200 191 191 197 196 207 209 197 213 205 188 185 193 195 203 214 207 207 224
43 26 15 346 181 173 170 178 182 180 178 186 190 188 201 193 194 194 204 195 209 197 193 211 207 186 192 203 209 215 220 218 216
69 29 37 29 8 14 228 175 171 167 178 188 196 185 196 207 197 198 199 206 196 206 193 195 210 202 195 202 208 217 223 222 216
70 38 34 34 24 17 6 21 185 175 178 181 191 204 193 201 207 205 198 200 202 199 188 194 196 207 195 203 212 221 222 214 218
160 80 35 32 12 15 47 27 176 177 207 170 190 201 205 198 190 198 197 192 192 191 192 191 191 201 208 199 217 218 186 201 219
155 119 62 14 347 35 35 3 18 11 152 224 215 209 224 199 197 193 195 184 185 191 187 184 195 201 201 218 222 104 152 174 189
123 125 86 14 340 353 26 358 340 0 348 273 230 226 219 220 196 205 200 184 182 189 189 190 191 196 209 218 206 140 126 134 188
110 110 110 39 353 352 355 282 309 294 244 237 220 242 235 223 215 207 193 195 187 185 189 194 194 196 207 207 117 132 143 158 157
94 80 54 23 339 319 323 343 326 307 342 328 273 233 238 216 218 219 212 202 195 184 190 191 192 198 197 126 141 141 144 173 174
46 28 5 3 308 324 323 346 333 329 319 311 308 301 247 219 209 206 214 205 203 193 189 190 192 178 111 95 120 106 86 43 309
22 7 342 339 327 329 326 5 340 312 315 318 307 271 273 241 198 207 206 206 198 190 190 195 172 131 111 101 88 86 80 31 25
3 358 338 340 334 318 338 346 317 317 321 320 317 271 246 223 214 190 211 203 208 203 181 173 143 143 120 119 102 63 17 82 44
347 339 333 332 327 330 321 324 319 303 301 308 311 292 246 225 201 148 30 45 99 155 144 155 145 141 132 119 118 161 222 236 141
316 334 317 343 320 319 312 307 301 302 307 307 298 298 60 70 80 89 79 61 35 38 52 13 131 117 128 145 145 172 114 94 60
303 326 329 332 326 321 326 314 305 303 289 273 100 86 81 95 100 91 101 99 82 47 42 78 69 78 113 65 110 173 98 89 86
302 293 20 353 339 343 342 324 310 316 290 116 111 113 116 103 102 114 104 100 101 97 58 64 58 62 69 80 117 79 71 69 61